GFSSGP_250_spd_132.txt.gz
Wind_Speed
47 41 35 32 34 36 37 33 33 31 27 21 11 7 10 17 17 14 20 24 30 35 31 32 33 25 17 10 8 10 12 9 7 5 3 3 5 7 7 5 6 7 8 11 14 13 12 10 10
45 41 41 31 40 38 38 36 33 33 29 22 14 9 9 14 13 13 13 20 26 32 29 32 30 32 24 23 19 19 18 15 13 9 9 11 13 13 14 15 18 18 19 20 16 14 14 12 10
49 47 46 40 39 44 37 36 35 34 33 27 16 9 9 11 15 14 11 17 20 24 27 28 32 32 33 28 29 30 30 26 25 24 21 20 21 21 23 23 22 21 22 21 17 14 13 12 10
54 50 46 46 42 39 36 34 35 33 33 27 20 10 11 13 15 14 12 17 14 16 21 26 27 32 31 32 31 35 31 29 29 27 27 27 26 26 28 27 25 22 19 18 15 13 10 10 14
53 54 51 49 47 46 41 39 36 32 29 30 22 16 12 18 14 12 7 15 8 12 17 23 21 25 28 32 32 28 28 29 27 30 30 29 27 22 22 20 17 14 15 12 11 11 12 14 16
59 50 54 55 53 48 54 43 38 36 33 32 32 23 19 15 15 13 11 17 6 9 11 18 18 19 21 23 26 26 25 24 26 25 25 21 18 17 17 13 12 14 14 13 12 11 14 17 18
68 60 59 56 53 48 49 45 34 32 40 38 38 32 21 17 17 15 18 16 5 8 9 12 14 17 14 21 23 22 25 22 21 20 22 22 20 16 14 13 12 14 16 18 18 16 17 20 23
71 62 64 64 59 55 46 45 37 31 32 37 37 31 25 20 19 21 22 17 11 11 8 9 12 14 16 13 16 18 18 20 18 18 18 17 16 16 15 14 13 16 17 16 18 16 20 19 26
71 70 61 67 66 61 55 50 43 37 38 37 37 32 26 27 23 24 24 20 18 14 13 9 10 13 12 15 12 11 11 11 12 11 12 12 11 10 10 11 13 15 17 18 19 16 17 21 30
74 72 74 75 69 66 60 57 46 43 37 36 33 27 27 27 30 27 29 25 20 16 15 11 10 9 13 14 12 12 11 9 11 12 12 12 11 10 10 11 10 14 17 19 22 24 27 28 31
85 81 78 75 70 67 59 59 53 47 43 38 36 28 25 21 23 27 29 28 24 21 19 20 17 12 14 14 12 12 12 15 18 17 16 17 17 17 17 14 14 17 18 20 24 26 31 31 34
84 86 86 81 77 68 63 62 55 49 46 43 45 42 36 33 26 21 26 28 27 25 24 24 22 19 17 16 14 11 16 18 19 20 21 21 22 21 23 21 20 19 23 25 29 33 38 37 45
89 84 83 81 78 77 64 59 55 53 46 47 49 44 40 37 38 33 23 29 30 28 27 25 25 23 20 17 11 17 20 20 23 23 23 23 25 27 27 25 22 24 29 33 33 36 37 45 46
88 92 87 81 79 79 71 66 60 58 55 52 52 49 47 40 37 35 32 27 34 34 31 31 28 25 23 19 20 22 20 24 25 23 23 23 26 27 27 27 25 31 35 31 37 40 42 48 51
90 85 88 87 84 82 79 68 67 65 62 56 56 55 51 46 42 37 37 32 29 37 36 32 30 22 24 24 24 25 24 25 24 26 26 25 25 24 31 32 31 32 37 42 51 49 51 54 54
92 87 81 86 80 81 82 73 76 72 61 64 60 59 59 51 45 44 41 39 38 34 35 35 31 26 26 27 30 29 27 28 29 26 25 28 26 30 33 37 37 39 45 44 50 51 54 53 58
94 84 80 81 83 80 79 76 78 75 67 65 62 62 62 57 50 48 45 45 41 39 41 41 40 37 32 33 33 31 31 31 31 30 28 30 33 34 34 31 32 36 38 40 43 46 50 53 58
91 85 81 78 85 85 82 81 80 73 70 70 65 61 63 63 57 50 49 51 48 45 45 47 46 41 36 36 37 35 35 36 35 40 36 35 35 38 38 36 41 42 42 44 45 47 50 51 56
101 93 87 88 87 83 83 81 80 74 64 64 65 68 63 63 59 53 53 53 52 49 48 45 42 41 41 40 41 44 42 41 35 30 32 34 40 42 44 43 45 46 44 46 48 49 53 55 58
106 99 93 93 93 87 85 81 79 78 71 68 67 63 66 68 62 59 59 54 54 48 47 44 44 44 44 45 45 47 50 45 39 39 40 42 43 45 46 49 50 51 52 48 48 52 55 54 56
104 104 99 99 97 91 88 84 81 77 76 73 64 66 63 65 69 68 60 59 56 55 51 50 45 46 48 50 49 51 48 48 47 45 48 51 52 51 51 53 52 52 52 54 56 60 56 60 60
103 108 105 102 101 93 90 83 84 81 78 77 73 64 63 62 63 65 66 64 61 63 51 47 47 47 50 52 51 49 49 49 49 51 52 54 55 58 58 57 54 59 63 62 59 56 59 63 63
107 108 108 107 104 99 96 88 80 80 73 73 79 74 67 64 59 56 58 61 60 59 53 51 51 55 55 53 54 55 58 54 52 56 56 54 53 59 59 60 61 67 66 65 63 62 63 67 70
114 114 113 112 112 112 95 90 79 76 69 67 76 73 71 64 62 63 62 61 62 61 55 58 61 57 58 58 59 60 60 60 63 61 60 62 65 60 64 68 71 69 69 69 67 65 70 72 74
118 115 115 118 120 101 100 95 73 80 75 68 66 67 67 68 69 68 66 65 63 64 61 61 64 62 61 62 62 64 65 62 63 61 62 64 66 65 67 66 65 68 65 66 69 71 73 74 77
116 114 114 113 111 97 104 94 80 76 81 74 68 63 64 62 65 67 68 66 64 61 62 64 64 64 66 64 61 63 63 65 68 67 69 71 68 67 64 66 66 66 66 68 71 75 78 80 86
123 125 117 119 114 109 110 96 89 80 84 82 76 71 64 64 63 65 65 70 71 69 70 65 61 61 58 58 60 63 65 66 65 66 66 63 62 64 67 67 69 71 74 76 77 80 86 86 90
129 123 126 123 117 112 103 99 90 82 81 86 79 75 72 67 62 63 64 67 67 65 61 62 61 60 59 59 59 62 61 60 59 59 62 66 67 72 73 73 74 76 79 82 85 86 89 91 93
127 128 125 124 119 113 103 100 90 89 88 84 87 80 76 73 70 67 64 64 63 62 61 61 60 60 60 60 60 60 62 62 64 66 68 69 73 73 75 77 80 83 86 88 90 91 92 93 96
131 131 131 130 119 114 109 96 92 92 91 89 84 85 80 76 76 73 72 70 69 68 67 67 66 64 65 65 64 65 66 68 69 70 72 75 75 78 79 84 86 87 90 93 92 95 96 99 102

GFSSGP_250_spd_138.txt.gz
Wind_Speed
43 48 47 34 33 40 36 36 31 28 27 25 24 22 19 10 7 9 15 18 23 27 31 31 34 28 27 26 20 16 12 9 9 9 6 5 5 6 8 11 11 12 14 8 6 9 11 11 7
41 47 51 44 28 42 35 38 33 30 29 27 24 22 18 10 5 7 12 14 19 20 26 29 31 33 28 26 25 25 23 21 20 20 18 18 17 16 13 10 8 9 13 15 15 14 12 7 8
41 46 51 49 29 35 41 39 36 33 30 28 27 22 18 15 13 8 8 11 15 17 19 25 25 29 29 29 30 32 28 26 27 29 28 27 27 27 24 23 22 20 19 19 17 13 10 10 14
46 44 48 51 40 32 36 39 38 35 31 28 29 24 19 18 12 7 2 7 11 12 14 17 25 25 25 27 26 30 32 30 28 26 27 28 27 27 27 24 20 19 17 14 11 11 10 11 14
54 48 47 54 50 36 34 41 37 37 33 30 29 26 19 15 13 11 7 5 9 6 11 13 18 20 21 22 24 22 23 27 29 28 24 22 19 19 20 18 16 16 16 13 10 11 17 19 17
59 54 49 53 50 50 39 40 36 38 36 33 31 27 23 18 11 10 8 6 7 4 8 11 16 16 16 18 20 20 21 22 23 23 22 22 18 14 13 13 11 11 10 12 14 16 16 18 17
63 58 55 52 53 54 46 42 35 41 37 34 33 30 24 21 21 11 12 10 7 5 9 8 12 14 14 14 15 18 18 20 18 18 18 17 16 14 12 11 10 10 12 14 14 15 20 21 20
65 64 58 57 55 53 59 46 43 46 39 35 32 30 25 28 20 23 16 15 9 11 10 10 9 12 12 13 12 14 15 16 18 18 16 13 12 12 13 13 12 13 12 10 10 11 19 18 20
67 66 65 64 63 57 57 50 50 49 44 40 32 34 34 33 26 29 22 18 16 13 12 13 11 9 10 13 10 11 10 11 14 14 14 13 12 11 11 12 14 15 17 15 15 17 21 19 24
72 66 71 68 67 61 62 58 59 52 49 48 41 35 34 35 33 32 30 25 20 16 16 17 15 13 12 14 11 8 6 7 9 10 12 12 13 13 13 13 15 16 18 21 23 21 27 26 27
77 70 75 74 69 69 64 64 62 60 55 52 48 38 32 34 38 32 33 31 27 20 20 18 20 18 18 17 15 9 6 9 9 11 15 12 14 16 13 14 19 25 24 26 29 27 32 31 33
84 80 76 78 74 71 70 73 66 67 61 56 53 44 38 30 34 36 34 31 27 24 20 21 20 21 21 19 16 15 12 12 13 15 15 12 14 16 15 16 19 22 20 21 27 27 32 31 38
87 87 79 79 78 72 76 72 71 70 71 59 57 53 46 37 31 30 30 26 25 22 22 22 23 24 24 22 23 18 16 15 15 15 15 16 18 17 16 17 19 22 25 28 27 27 31 33 35
92 93 85 80 81 78 76 75 68 71 72 66 61 58 49 45 37 34 31 28 27 23 22 25 26 26 24 25 28 25 23 21 21 18 18 21 21 21 20 21 23 23 28 30 30 32 31 35 38
99 98 91 83 82 83 78 76 73 80 78 70 63 60 56 48 46 41 41 37 37 33 29 24 27 29 27 27 30 30 27 26 23 24 25 26 24 25 25 26 27 31 33 36 33 35 37 41 44
104 102 96 89 85 86 84 77 83 84 80 75 67 68 61 56 52 47 46 43 41 42 33 31 29 26 24 25 30 31 29 26 28 31 31 31 29 29 31 33 33 37 38 39 39 41 41 44 46
106 105 97 96 91 90 87 82 87 85 82 82 68 65 61 58 53 54 48 45 44 48 40 39 35 33 31 27 28 30 32 35 37 39 40 37 35 36 35 37 36 33 36 37 39 40 45 49 50
107 105 102 100 95 93 92 87 90 85 82 78 69 61 59 58 59 58 53 49 46 49 48 46 43 39 37 35 33 32 36 39 41 42 41 39 38 39 41 42 42 41 40 40 43 47 48 50 50
113 109 107 104 102 97 95 93 92 89 84 81 74 69 67 64 67 58 57 53 52 53 54 49 47 45 42 44 42 39 41 40 46 46 44 44 42 45 44 45 46 47 47 46 46 48 50 47 50
118 117 111 106 105 99 96 97 96 89 85 84 80 74 72 71 67 61 60 56 52 55 59 55 51 47 48 49 47 48 46 47 49 50 48 47 47 48 51 50 49 50 47 49 50 48 53 55 53
125 122 112 111 110 103 100 99 98 93 87 88 84 82 80 79 75 70 66 65 65 63 63 62 60 56 53 52 53 51 53 53 52 51 51 50 51 50 50 52 52 51 52 53 54 56 54 53 54
119 121 118 114 114 106 102 98 98 95 87 87 88 87 83 80 77 72 65 61 61 62 62 59 60 59 58 56 56 54 55 57 54 53 54 53 53 52 55 56 54 55 56 58 54 51 54 58 57
116 121 121 119 116 112 107 102 95 96 89 87 85 86 85 81 78 76 73 67 63 62 65 67 64 62 62 63 61 62 62 61 58 59 59 58 57 57 57 58 57 59 63 59 56 59 60 60 61
117 120 125 123 120 117 106 105 95 96 88 88 89 86 84 81 74 71 71 71 67 67 65 64 63 63 61 58 58 60 64 65 63 65 65 62 59 62 60 58 61 64 61 56 56 62 63 62 63
123 124 125 125 126 114 112 112 92 92 92 89 90 88 86 82 79 71 70 73 72 69 68 66 61 61 59 59 58 60 64 61 62 62 63 62 64 64 64 60 62 60 58 59 61 62 61 63 65
114 119 131 130 124 113 119 115 101 89 93 89 92 86 84 83 82 79 75 72 73 70 66 65 65 63 61 63 62 62 63 58 60 63 64 64 67 67 62 62 62 60 61 64 63 63 63 65 70
118 127 123 132 131 125 122 109 106 98 91 93 94 91 85 84 85 83 79 75 73 73 73 72 69 68 66 65 64 65 64 64 66 66 64 66 67 65 64 63 65 63 63 64 64 66 70 70 72
126 122 129 133 137 129 120 112 106 102 92 90 94 94 90 88 86 86 83 79 78 76 75 73 68 66 66 63 64 64 66 69 69 69 71 68 68 68 67 66 65 63 65 65 68 70 73 72 75
122 124 129 128 133 135 123 116 109 106 102 93 93 96 97 92 88 86 84 83 81 77 76 73 70 71 67 64 62 61 65 66 68 66 68 68 68 68 68 66 66 66 67 69 70 72 75 75 79
125 125 130 131 130 133 131 118 112 111 104 97 93 96 98 97 92 88 84 83 82 80 79 80 77 74 72 69 66 65 64 63 63 65 68 70 70 68 68 67 67 69 71 72 74 76 77 80 85

GFSSGP_250_spd_141.txt.gz
Wind_Speed
35 39 43 41 38 41 27 38 33 27 32 28 27 23 19 19 8 8 12 13 18 20 25 28 32 30 25 20 19 14 10 7 4 3 4 4 8 11 12 11 9 8 8 8 1 10 12 6 8
41 38 40 45 42 43 34 35 35 31 35 30 25 25 21 18 10 8 9 9 14 15 20 27 27 25 27 28 24 23 23 22 21 19 18 14 11 7 6 5 5 9 12 15 16 14 7 6 7
43 42 39 42 45 41 40 27 41 39 35 35 24 24 22 18 16 14 9 5 10 12 15 21 24 23 24 23 27 27 27 25 26 27 25 26 28 29 30 27 25 22 19 17 14 10 7 6 9
48 46 41 41 45 40 42 27 34 42 35 37 29 25 21 19 20 11 7 4 8 7 10 14 19 18 21 20 21 23 28 24 25 26 24 25 25 25 25 23 21 17 14 11 10 8 12 13 17
49 48 44 43 43 42 43 40 20 30 38 37 32 28 23 19 18 15 15 11 5 5 6 10 15 15 18 19 20 21 23 26 25 23 22 20 20 21 20 19 17 15 12 9 10 13 15 13 15
52 53 50 47 44 43 43 46 32 33 33 38 34 30 25 21 21 18 16 13 8 5 5 7 10 12 13 13 16 17 19 20 21 20 20 20 17 14 14 14 12 11 10 8 9 11 16 14 16
59 56 53 52 49 46 44 46 46 37 29 32 38 35 28 26 21 19 15 18 13 10 6 8 8 10 10 12 13 14 16 17 18 15 13 15 16 14 13 14 13 12 11 8 8 10 14 15 14
64 61 56 58 57 53 50 47 48 44 35 27 33 36 35 26 26 24 26 18 18 15 9 9 10 8 11 11 12 8 12 13 13 14 17 17 14 11 10 10 11 12 13 15 16 15 20 21 18
71 65 62 64 61 58 54 50 48 56 50 40 36 43 38 33 26 26 21 23 21 18 15 13 10 11 12 13 12 10 12 11 11 11 12 12 13 13 10 9 10 9 10 12 17 21 21 25 28
72 71 68 71 64 64 56 54 52 54 52 48 40 44 37 35 31 31 29 28 28 24 23 17 16 14 13 14 14 11 9 9 9 9 10 8 8 9 8 6 6 14 17 20 19 23 25 25 26
78 73 77 75 71 68 63 59 55 55 55 58 58 50 38 40 33 33 34 34 31 30 29 22 20 18 18 18 18 14 12 11 11 9 9 9 9 11 10 9 8 13 17 18 20 23 25 26 30
83 80 83 78 75 74 68 65 59 60 58 59 58 59 51 42 36 36 37 35 31 32 34 27 24 22 23 21 22 20 16 14 15 16 13 12 13 15 15 14 16 17 20 22 25 28 30 30 32
82 88 84 85 79 77 73 70 67 60 65 59 59 59 56 52 45 36 36 36 37 37 34 31 28 26 25 26 25 23 22 19 20 20 19 18 19 21 21 22 21 22 23 25 28 32 32 33 34
91 86 91 90 83 82 80 77 70 68 69 66 67 65 59 57 52 43 36 37 37 33 31 32 31 27 28 29 29 26 26 26 24 25 24 23 22 25 26 26 25 25 27 30 33 35 38 37 39
93 91 93 90 91 83 84 82 72 77 71 70 72 68 65 62 54 51 42 39 33 31 31 26 25 27 29 32 29 28 30 30 28 28 30 26 27 31 32 31 29 30 32 34 37 40 43 44 44
97 92 92 92 97 90 90 80 84 81 76 71 73 71 70 66 65 55 54 46 38 39 38 36 39 31 29 30 34 33 30 32 33 31 30 30 34 38 36 36 35 37 37 39 41 39 38 41 43
100 92 90 99 100 99 93 87 90 87 78 75 74 75 71 68 64 59 59 56 47 45 44 43 43 42 35 33 32 28 29 31 34 31 33 36 39 40 40 40 42 42 43 43 44 45 47 48 50
101 98 97 96 103 103 98 93 93 93 86 79 77 76 72 70 71 67 60 58 54 55 50 51 48 46 43 42 40 40 36 34 35 37 40 40 41 42 42 46 46 46 46 47 50 49 47 50 54
107 102 99 95 104 105 103 100 96 96 88 82 78 75 75 76 77 73 60 65 65 59 57 55 50 50 49 46 44 44 41 40 43 41 41 43 44 43 48 49 49 48 48 49 50 51 51 52 54
109 104 96 97 101 107 110 105 100 97 90 86 83 78 78 78 79 77 73 67 64 64 60 58 57 53 49 48 48 47 45 44 46 48 49 48 45 47 51 52 52 53 52 51 52 53 55 57 58
104 101 95 97 108 111 114 109 104 99 93 89 87 81 77 80 83 83 73 69 68 64 61 61 60 59 54 53 52 52 51 51 54 53 51 51 52 52 53 52 54 55 53 54 53 55 57 58 61
100 98 96 105 111 112 115 108 107 100 94 86 86 84 80 83 85 82 78 70 68 66 67 63 62 60 56 58 58 59 62 60 58 55 55 57 54 56 56 54 57 57 57 58 57 59 59 62 63
96 101 99 107 112 118 114 110 104 105 96 87 86 86 86 86 88 85 83 77 73 71 71 69 68 66 66 64 62 63 63 63 61 58 60 60 63 62 61 60 61 60 60 60 63 62 62 61 58
99 101 104 110 113 120 108 112 110 107 95 92 89 89 91 92 88 88 88 86 82 79 77 79 77 74 68 65 65 65 65 67 66 65 63 60 60 62 65 66 66 64 65 63 63 65 61 60 60
101 100 104 110 113 117 111 116 105 105 102 95 92 91 93 93 93 89 88 90 89 88 87 84 79 77 75 69 64 63 67 67 65 66 63 62 59 61 64 62 64 62 61 63 65 63 62 63 64
97 98 104 108 108 109 121 115 102 105 105 100 97 95 95 95 95 93 91 89 87 88 87 88 82 77 72 69 64 67 67 65 65 62 61 63 61 60 62 59 61 63 63 64 65 65 62 64 63
98 104 101 108 110 120 121 111 109 110 106 104 101 99 99 98 96 93 91 88 87 85 84 83 79 75 72 69 67 66 65 65 67 65 63 65 64 67 65 63 64 66 68 65 65 66 66 66 65
102 101 106 112 118 122 127 114 108 112 111 105 104 101 103 102 99 94 93 92 87 86 84 84 80 74 71 73 71 69 69 67 69 69 64 62 66 68 66 68 68 67 64 62 65 68 68 67 69
99 105 111 115 122 125 114 110 104 116 116 107 103 107 105 103 100 96 94 92 91 89 88 87 85 82 81 79 78 78 77 74 71 67 62 62 64 64 64 64 66 64 61 66 69 68 69 69 71
102 106 111 120 122 124 122 110 104 116 119 110 108 108 107 106 103 100 99 97 94 91 91 88 87 85 85 86 84 82 82 77 72 70 67 67 65 63 63 64 61 66 70 69 68 70 71 73 75

GFSSGP_250_spd_144.txt.gz
Wind_Speed
33 32 37 35 38 33 28 30 24 31 35 24 19 27 27 22 18 8 9 10 16 20 24 25 27 26 25 23 19 15 9 4 3 2 4 5 13 10 10 10 7 4 4 1 2 11 8 6 8
40 36 34 42 42 38 33 35 30 26 34 27 21 27 25 20 16 9 11 6 12 15 19 23 24 23 24 27 24 22 19 15 13 13 13 11 10 9 8 7 5 9 15 16 14 11 7 7 9
40 40 38 37 40 38 35 39 30 28 30 33 33 31 25 19 16 16 8 3 9 9 13 19 20 23 20 21 25 24 25 24 19 19 22 23 23 22 22 24 25 23 20 16 15 11 6 6 11
43 43 42 40 42 39 38 39 34 34 24 36 33 27 21 21 16 16 9 7 8 8 6 13 17 17 18 21 21 23 24 22 23 24 22 24 25 25 24 23 21 18 16 14 11 8 8 7 9
46 45 44 45 43 39 41 42 38 38 32 26 35 30 25 21 19 18 11 15 11 9 4 9 12 14 13 15 18 19 20 21 22 23 20 21 20 20 19 19 16 15 13 10 6 9 9 7 9
50 48 47 47 46 43 42 44 43 41 37 24 30 40 31 25 20 22 20 12 13 11 5 5 10 9 11 13 12 16 17 18 18 19 19 18 17 17 16 15 14 11 8 3 1 3 10 14 15
56 52 50 48 49 48 43 46 45 44 43 33 30 26 37 31 26 21 22 14 18 16 10 6 7 7 10 10 10 9 12 13 14 17 15 13 11 12 12 10 9 7 4 3 8 10 14 19 22
63 60 57 57 54 52 46 49 46 48 42 40 32 26 25 30 29 20 22 19 18 20 15 10 9 7 7 11 9 6 11 10 9 11 12 14 13 8 7 5 5 4 5 10 13 18 22 20 22
59 63 63 63 61 57 50 51 49 48 47 44 39 33 23 25 32 32 24 19 23 17 20 16 12 12 11 10 12 9 7 7 7 6 8 9 9 9 7 5 4 4 11 13 14 15 20 22 24
66 63 67 67 67 62 55 55 52 51 50 46 46 40 30 30 36 34 34 27 24 22 21 22 19 16 16 14 14 13 11 9 9 7 7 8 7 8 9 8 7 7 11 14 18 21 22 24 27
72 70 69 72 70 66 63 60 53 55 52 51 49 48 44 45 38 38 38 33 30 25 27 27 27 20 19 14 18 16 16 14 14 11 11 10 9 10 10 11 10 12 15 18 20 21 24 28 32
74 75 73 74 73 69 70 65 61 59 58 56 53 49 49 49 44 37 42 38 37 30 30 32 30 31 26 21 21 21 20 18 18 17 15 16 15 15 15 15 15 18 18 21 23 26 28 30 34
80 78 78 77 76 74 72 71 68 63 64 58 58 53 54 53 51 48 41 44 44 38 35 35 32 34 30 28 26 25 24 23 22 22 21 20 20 21 20 21 22 22 23 24 27 29 32 36 39
86 82 84 84 80 77 77 72 73 69 69 67 61 61 56 52 54 57 55 41 37 37 38 37 39 36 33 32 30 31 33 28 26 28 27 26 27 25 23 25 28 26 28 30 31 34 36 40 41
89 88 87 85 85 83 80 78 74 77 77 73 64 66 62 57 55 57 59 50 47 41 38 37 38 36 36 35 31 31 33 31 30 31 33 30 30 30 31 28 34 32 32 34 35 38 40 41 43
91 92 90 89 90 86 85 73 83 81 81 78 75 69 69 63 58 58 59 55 51 41 41 40 41 39 37 34 31 32 35 35 35 31 32 36 33 33 31 35 36 38 39 39 41 44 45 46 49
94 91 91 91 94 91 89 78 82 88 85 83 80 76 71 66 65 64 64 60 58 50 49 41 41 42 37 35 33 35 37 38 37 33 32 37 38 35 35 37 37 39 44 44 46 45 46 47 49
101 99 95 95 96 95 90 80 87 86 89 85 86 82 78 69 68 69 67 65 62 60 56 57 50 49 50 42 43 41 40 38 38 37 36 38 37 38 38 38 40 41 44 45 48 49 50 52 52
110 107 100 96 98 99 91 85 87 89 88 90 88 86 83 77 73 70 71 70 67 66 63 65 61 56 53 51 48 46 47 45 43 43 41 42 42 41 41 43 43 44 46 47 52 51 53 53 54
116 113 106 101 100 103 94 88 90 90 88 92 91 90 89 83 77 75 70 70 71 70 65 67 63 65 61 58 54 51 52 50 51 49 48 47 45 43 46 47 49 51 48 51 53 52 56 56 56
120 116 111 112 106 105 100 91 94 92 94 91 91 93 92 89 81 77 75 74 72 71 72 71 70 66 67 64 59 58 55 55 52 52 51 50 50 48 53 52 51 53 53 55 58 57 59 59 60
126 121 121 119 118 109 106 96 92 96 94 90 91 97 93 87 84 82 80 78 77 78 79 78 74 70 67 68 64 60 60 60 60 57 54 55 57 61 58 54 55 55 58 62 61 61 62 64 63
127 129 128 126 121 121 110 108 85 98 94 92 93 97 98 91 89 88 82 82 81 80 82 80 79 75 71 71 70 66 63 66 63 63 62 62 61 61 60 60 59 60 61 61 61 62 62 63 60
127 129 126 123 124 127 102 106 90 93 94 96 93 96 101 97 93 92 87 84 82 84 84 85 83 81 78 73 72 70 67 67 67 67 65 65 65 64 63 64 65 61 60 60 59 61 61 61 61
113 112 114 117 118 118 92 107 86 90 95 97 97 97 103 101 98 94 92 88 87 85 86 87 85 84 80 75 74 73 72 72 71 70 64 65 68 67 66 67 62 61 63 62 60 59 59 61 62
105 106 111 111 108 106 94 107 82 88 95 98 101 101 105 107 103 97 98 93 90 89 87 88 86 85 83 81 77 77 77 76 73 74 71 69 67 66 62 63 62 60 62 64 64 63 64 66 68
97 104 99 103 101 103 94 97 85 86 92 98 103 105 109 111 109 103 102 98 95 94 93 92 93 93 93 93 91 88 85 82 82 78 77 69 67 67 66 61 62 62 64 64 64 67 68 67 67
91 91 96 97 97 98 91 91 83 84 93 98 100 103 109 115 113 108 107 102 100 99 98 97 95 92 90 90 87 87 86 85 83 82 77 72 67 64 65 64 63 65 64 63 62 65 66 64 66
86 91 93 93 97 97 93 94 79 86 94 96 96 97 105 116 118 113 110 106 104 103 101 98 97 97 95 93 89 85 84 83 83 77 77 75 72 69 67 68 68 64 62 63 63 64 65 65 65
87 85 89 96 88 89 93 88 79 86 93 90 94 95 102 114 119 115 113 109 107 105 103 102 99 96 94 95 93 90 84 82 82 81 81 80 75 73 73 74 71 69 65 65 65 66 66 65 70

GFSSGP_250_spd_147.txt.gz
Wind_Speed
30 36 38 39 36 32 31 29 31 28 20 21 26 18 15 18 19 10 8 10 14 17 22 25 24 21 25 26 24 20 15 5 3 5 9 11 16 15 15 11 9 11 13 12 8 10 8 5 2
34 31 35 33 38 33 32 37 33 26 26 17 26 20 17 17 17 9 10 4 9 12 14 21 21 23 26 27 22 23 23 18 9 6 7 9 14 15 12 11 8 9 11 17 15 11 6 1 3
35 35 35 37 32 31 36 36 34 30 30 22 20 22 25 19 16 14 7 1 8 9 8 15 19 18 20 24 23 22 23 23 20 16 11 10 13 13 12 10 15 23 21 20 15 8 3 2 4
37 37 40 38 38 33 37 35 36 35 34 26 17 25 30 21 18 13 7 4 11 6 5 10 14 16 17 19 22 21 22 21 21 22 24 22 20 21 22 23 21 22 21 16 12 6 3 1 6
36 39 39 40 39 38 39 36 35 34 39 31 24 15 28 29 18 16 15 7 7 7 5 4 9 13 13 14 15 18 20 18 17 18 20 22 21 20 18 17 16 16 15 12 6 1 4 7 11
38 40 43 43 43 41 43 39 39 34 37 37 34 27 19 28 27 20 19 15 7 9 8 3 4 9 9 9 9 13 15 14 14 14 15 15 15 15 16 15 13 11 9 5 2 5 10 13 17
42 42 45 46 47 44 44 42 41 38 38 41 39 31 19 19 28 27 20 21 9 12 13 9 4 3 5 8 6 6 9 8 9 11 10 9 10 10 10 9 10 8 4 2 3 7 12 16 17
48 44 50 50 47 44 44 45 41 39 38 42 39 37 25 25 21 25 23 13 16 17 18 17 11 6 5 5 8 5 5 4 3 5 8 8 6 5 4 4 4 4 2 5 10 13 15 19 21
53 49 51 55 52 47 45 47 44 44 41 42 44 45 36 29 24 16 22 24 19 16 21 20 15 10 10 9 9 9 8 6 3 4 3 3 4 3 2 1 2 2 5 8 11 15 17 20 21
58 56 57 58 55 52 50 52 52 48 46 43 45 47 47 39 32 19 24 32 28 26 18 19 18 16 15 16 14 11 11 10 11 9 8 6 4 4 6 6 6 8 11 12 14 16 19 21 24
64 61 62 62 60 56 51 57 58 57 53 46 46 49 48 49 37 31 28 29 29 25 27 24 23 21 21 21 20 17 16 18 16 15 14 13 12 9 7 8 10 12 15 17 20 21 23 24 27
68 68 65 64 64 60 59 58 60 61 60 53 50 48 53 53 49 41 38 34 34 30 30 32 29 26 25 26 26 24 21 23 23 20 20 19 18 17 17 16 14 15 18 21 23 25 27 27 29
72 69 67 66 69 65 65 64 58 63 66 63 57 53 51 54 53 51 43 47 40 37 38 34 32 30 30 29 31 31 28 26 26 26 23 23 24 22 23 23 23 23 24 24 25 28 32 33 34
75 74 74 73 76 72 67 67 65 71 70 66 65 60 55 53 58 56 53 48 45 40 42 44 41 35 36 38 37 34 35 33 32 34 32 28 28 30 27 28 29 30 27 28 30 33 34 37 39
82 80 78 78 81 78 77 70 72 76 76 71 68 68 62 61 57 61 57 56 53 51 47 44 43 41 40 40 41 41 37 37 37 35 33 33 31 32 34 32 31 31 32 33 35 37 38 40 44
90 88 85 82 85 87 87 74 80 81 80 77 74 70 70 67 62 61 63 58 53 57 61 52 47 41 40 40 44 44 42 41 38 38 37 35 36 33 34 35 32 33 32 34 37 39 38 41 47
97 95 92 89 93 94 97 82 83 85 84 80 77 76 73 72 69 66 67 65 59 57 54 56 53 52 47 46 46 46 45 44 40 40 39 38 39 38 34 34 34 35 36 37 39 40 41 42 48
102 101 99 95 95 101 100 90 87 86 85 85 83 78 78 76 75 73 72 71 65 62 60 58 60 54 51 47 47 48 49 45 40 37 38 39 37 41 38 36 35 37 37 40 43 44 45 45 49
108 108 104 100 101 107 106 97 91 87 88 88 89 82 77 79 81 80 77 77 72 69 67 65 63 64 59 55 55 47 48 47 49 43 44 46 44 45 42 40 41 41 38 40 43 47 48 50 53
112 112 109 106 107 114 112 105 96 91 89 88 87 85 83 81 83 84 84 82 79 77 73 71 69 70 67 62 63 60 55 54 53 52 52 54 52 47 49 49 46 47 46 46 50 50 51 53 56
116 117 114 113 114 114 115 108 92 86 86 89 84 89 88 84 84 86 87 88 85 83 80 78 75 74 72 69 64 68 67 65 64 60 59 57 57 57 52 54 49 48 52 55 57 54 55 54 60
120 118 122 122 120 117 118 106 87 84 82 87 89 89 90 91 86 87 89 92 90 90 87 82 82 77 76 77 72 68 70 66 70 68 63 63 63 62 59 56 53 52 55 60 60 56 57 60 61
121 123 123 124 125 122 120 112 81 89 80 86 90 93 93 95 92 88 93 92 96 93 89 87 86 82 79 79 76 71 72 73 69 71 70 67 67 66 63 64 65 59 59 60 61 60 59 64 62
125 126 127 129 128 130 117 119 87 93 86 88 95 95 96 98 97 93 94 95 95 99 96 91 89 87 84 82 80 75 76 78 75 73 69 67 66 65 67 65 65 63 63 63 65 63 63 62 61
132 132 135 136 135 132 123 132 95 102 99 100 104 100 103 101 100 99 95 98 97 102 101 98 92 90 90 88 85 83 83 82 79 78 75 73 72 72 71 69 64 67 66 64 66 66 63 64 63
139 140 141 141 137 135 134 137 103 106 112 108 108 108 106 104 105 100 99 100 100 101 105 103 98 96 96 93 90 89 87 86 86 83 81 78 75 73 73 69 69 69 69 68 67 64 65 65 64
129 133 133 139 140 142 135 129 114 109 111 111 108 107 105 104 106 106 103 101 102 102 107 107 101 100 98 96 94 90 87 85 85 87 84 82 75 77 77 75 73 73 71 72 69 66 65 65 66
104 104 109 114 119 122 115 110 100 95 97 104 105 102 101 101 104 106 108 102 104 106 108 109 108 104 101 98 94 93 92 89 90 88 83 83 80 79 79 79 80 78 75 73 71 69 69 69 70
99 95 96 98 100 102 103 96 87 88 94 95 98 94 97 100 101 104 108 103 106 107 109 112 109 109 105 103 99 97 92 92 91 90 88 86 86 85 87 87 81 76 72 71 70 70 71 70 71
91 86 90 94 90 93 95 82 80 82 84 90 94 94 94 99 98 102 107 105 105 108 110 114 113 113 111 107 103 98 97 96 95 92 91 93 94 93 90 87 78 74 73 72 72 73 73 72 72